[[{"header":{"parameterUnit":"m.s-1","parameterCategory":1,"la1":30.2991,"la2":30.254,"lo1":-89.0895,"lo2":-89.0444,"dy":0.0017,"dx":0.0017,"nx":28,"ny":28,"refTime":"2025-05-24T03:00:00:Z","depth":0,"parameterNumber":2,"parameterNumberName":"U-component_of_WINDS"},"data":[0,0,0,0,0,0,0,0,0,0,0,0,0,0,0,0,0,0,0,0,0,0,0,0,0,0,0,0,0,0,0,0,0,0,0,0,0,0,0,0,0,0,0,0,0,0,0,0,0,0,0,0,0,0,0,0,0,0,0.8306,0.8306,0,0.8302,0.8302,0.8302,0.8276,0.8275,0.8275,0.8274,0.8268,0.8269,0.8269,0,0,0,0,0,0,0,0,0,0,0,0,0,0.8291,0.8292,0.8306,0.8306,0.8306,0.8302,0.8302,0.8302,0.8276,0.8275,0.8274,0.8274,0.8268,0.8269,0.8269,0,0,0,0,0,0,0,0,0,0,0,0,0,0.8293,0.8292,0.8306,0.8293,0.8292,0.8302,0.8302,0.8302,0.8276,0.8275,0.8274,0.8273,0.8268,0.8269,0.8269,0.8292,0,0,0.8271,0.8272,0,0,0,0,0,0,0,0,0.8293,0.8294,0.8295,0.8294,0.8293,0.8288,0.8294,0.8298,0.8276,0.8282,0.8274,0.8273,0.8276,0.8276,0.8277,0.8291,0.8291,0.8271,0.8272,0.8272,0.8272,0,0,0,0,0,0,0,0.8293,0.8294,0.8304,0.8295,0.8294,0.8287,0.8286,0.8295,0.8284,0.8281,0.828,0.8279,0.8275,0.8276,0.8277,0.8291,0.8271,0.8272,0.8272,0.8273,0.8322,0.8323,0,0,0,0,0,0,0.8295,0.8294,0.8305,0.8304,0.8291,0.8288,0.8287,0.8291,0.8284,0.8282,0.828,0.8278,0.8276,0.8276,0.8276,0.8301,0.8272,0.8273,0.8273,0.8321,0.8322,0.8323,0,0,0,0,0,0,0.8295,0.8296,0.8305,0.8299,0.8299,0.8289,0.8293,0.8291,0.8292,0.8283,0.8281,0.8284,0.8275,0.8275,0.8288,0.83,0.8273,0.8273,0.832,0.8321,0.8323,0.8351,0,0,0,0,0,0,0.8295,0.8296,0.8305,0.8299,0.83,0.8317,0.8294,0.8292,0.8294,0.8291,0.8286,0.8284,0.8274,0.8287,0.8288,0.83,0.8274,0.8319,0.8321,0.8322,0.8348,0.8353,0.8356,0,0,0,0,0,0.8294,0.8314,0.8306,0.8307,0.8311,0.8318,0.8318,0.8307,0.8295,0.8303,0.8297,0.8284,0.8299,0.8288,0.829,0.8302,0.8318,0.832,0.8322,0.8347,0.8352,0.8356,0,0,0,0,0,0,0.8322,0.8313,0.8304,0.8322,0.8321,0.8314,0.8324,0.8313,0.8315,0.8312,0.8298,0.8297,0.8311,0.8308,0.8297,0.8323,0.8306,0.8308,0.8324,0.8329,0.8333,0.8333,0.8274,0,0,0,0,0,0.833,0.8337,0.8328,0.8345,0.8345,0.8335,0.8337,0.8329,0.8327,0.8326,0.8321,0.8319,0.8323,0.8326,0.8329,0.8348,0.8346,0.8357,0.8361,0.8364,0.8366,0.8375,0.8379,0.833,0.833,0.833,0,0,0.8347,0.8343,0.8348,0.835,0.8349,0.8355,0.8334,0.8343,0.8347,0.8327,0.8338,0.8334,0.8331,0.8347,0.8353,0.8344,0.838,0.8367,0.837,0.837,0.8377,0.8382,0.8386,0.8331,0.8331,0.8331,0,0,0.8381,0.8379,0.8392,0.839,0.8388,0.838,0.8383,0.8377,0.8374,0.8385,0.8369,0.8374,0.8382,0.838,0.838,0.8412,0.84,0.8414,0.8434,0.8442,0.8446,0.8449,0.8459,0.8463,0.8416,0.8416,0.8416,0,0.8402,0.8412,0.84,0.8409,0.841,0.8392,0.8404,0.8403,0.8402,0.8402,0.8393,0.8401,0.8398,0.8412,0.8419,0.842,0.8423,0.8414,0.8446,0.845,0.8453,0.8462,0.8466,0.8417,0.8417,0.8417,0.8417,0,0.8438,0.8445,0.8456,0.8454,0.8456,0.8467,0.8456,0.8459,0.845,0.8444,0.8454,0.845,0.8451,0.8454,0.8445,0.8466,0.8461,0.8449,0.8432,0.8459,0.8468,0.8471,0.842,0.8419,0.8419,0.8418,0,0,0.8489,0.848,0.8484,0.8483,0.8478,0.8483,0.8492,0.8493,0.8496,0.8496,0.8502,0.8509,0.8497,0.8497,0.8488,0.8496,0.8519,0.8483,0.8482,0.8489,0.854,0.8548,0.8553,0.8511,0.8512,0.8513,0.854,0,0.8521,0.8537,0.8525,0.8543,0.8548,0.8531,0.8538,0.8536,0.853,0.8533,0.8526,0.8531,0.8516,0.8516,0.8522,0.8515,0.8529,0.8513,0.8517,0.8517,0.8517,0.8558,0.8566,0.8593,0.8544,0.8544,0.8545,0,0.856,0.856,0.8578,0.8571,0.8573,0.858,0.858,0.8583,0.858,0.8575,0.8574,0.8563,0.857,0.8554,0.8564,0.8553,0.8553,0.855,0.8551,0.855,0.8532,0.8557,0.8601,0.8604,0.855,0.855,0.8549,0,0.8594,0.8599,0.861,0.861,0.8602,0.8607,0.8604,0.8599,0.86,0.86,0.86,0.86,0.86,0.8601,0.8589,0.8579,0.86,0.8583,0.8595,0.8595,0.86,0.86,0.8643,0.8602,0.8602,0.8602,0.8602,0,0.863,0.8641,0.8625,0.8632,0.8643,0.863,0.8642,0.8637,0.8632,0.8637,0.8622,0.8627,0.8612,0.8615,0.8606,0.8614,0.8615,0.861,0.8608,0.8611,0.8612,0.8611,0.8608,0.8603,0.8603,0.8603,0.8602,0,0.867,0.866,0.867,0.8661,0.8659,0.8668,0.866,0.8666,0.8658,0.8664,0.8665,0.8654,0.8656,0.8645,0.8645,0.8639,0.8652,0.8647,0.8653,0.8651,0.8663,0.8662,0.8708,0.8712,0.8669,0.8669,0.867,0,0.8693,0.8701,0.8693,0.8695,0.8692,0.8696,0.8697,0.8684,0.8685,0.868,0.8686,0.8687,0.8687,0.8692,0.8683,0.8683,0.8677,0.8693,0.8677,0.868,0.8676,0.8675,0.8675,0.8696,0.8697,0.8697,0.8698,0,0.8734,0.8728,0.873,0.873,0.8731,0.873,0.8729,0.8731,0.8717,0.8719,0.8721,0.8721,0.8721,0.8722,0.872,0.8716,0.8704,0.8703,0.8705,0.8708,0.8711,0.8709,0.8661,0.8702,0.8701,0.8701,0.8701,0.8701,0.8765,0.8771,0.8766,0.8768,0.8765,0.8763,0.8767,0.876,0.8762,0.8761,0.8753,0.8757,0.8752,0.8748,0.8745,0.8747,0.8739,0.8743,0.8744,0.8745,0.8747,0.8712,0.8747,0.8746,0.8746,0.8746,0.8746,0,0.8804,0.88,0.8802,0.88,0.8801,0.879,0.8787,0.8789,0.8792,0.8788,0.8789,0.879,0.8791,0.8782,0.8781,0.8785,0.8779,0.8785,0.8784,0.8783,0.8754,0.8751,0.8789,0.8789,0.8789,0.8789,0.8789,0.8789,0.8825,0.8834,0.8827,0.8834,0.883,0.8833,0.8832,0.883,0.8827,0.8829,0.883,0.8824,0.8818,0.8816,0.8816,0.8813,0.8813,0.8821,0.8816,0.8789,0.8785,0.8781,0.8778,0.8821,0.8821,0.8844,0.8845,0.8845]},{"header":{"parameterUnit":"m.s-1","parameterCategory":1,"la1":30.2991,"la2":30.254,"lo1":-89.0895,"lo2":-89.0444,"dy":0.0017,"dx":0.0017,"nx":28,"ny":28,"refTime":"2025-05-24T03:00:00:Z","depth":0,"parameterNumber":3,"parameterNumberName":"V-component_of_WINDS"},"data":[0,0,0,0,0,0,0,0,0,0,0,0,0,0,0,0,0,0,0,0,0,0,0,0,0,0,0,0,0,0,0,0,0,0,0,0,0,0,0,0,0,0,0,0,0,0,0,0,0,0,0,0,0,0,0,0,0,0,6.2199,6.22,0,6.2272,6.2272,6.2273,6.2196,6.2194,6.2191,6.2188,6.2255,6.2259,6.2264,0,0,0,0,0,0,0,0,0,0,0,0,0,6.1987,6.1992,6.2199,6.22,6.2201,6.2271,6.2272,6.2273,6.2197,6.2193,6.219,6.2186,6.2253,6.2259,6.2264,0,0,0,0,0,0,0,0,0,0,0,0,0,6.2071,6.1993,6.2199,6.2172,6.217,6.2271,6.2272,6.2274,6.2198,6.2193,6.2189,6.2185,6.2251,6.2258,6.2265,6.2395,0,0,6.2285,6.2288,0,0,0,0,0,0,0,0,6.2067,6.2079,6.2175,6.2174,6.2172,6.2221,6.2222,6.2314,6.2199,6.2187,6.2188,6.2183,6.2246,6.2253,6.2276,6.2398,6.24,6.2286,6.229,6.2293,6.2295,0,0,0,0,0,0,0,6.2061,6.2076,6.2228,6.2176,6.2175,6.2153,6.216,6.2239,6.224,6.2188,6.2182,6.2192,6.2245,6.227,6.2277,6.2401,6.2286,6.2292,6.2296,6.2299,6.2631,6.2635,0,0,0,0,0,0,6.2059,6.2071,6.2225,6.223,6.2108,6.2161,6.2168,6.2209,6.2239,6.224,6.2196,6.2188,6.2261,6.2269,6.2279,6.2432,6.2293,6.2299,6.2303,6.2626,6.2632,6.2637,0,0,0,0,0,0,6.2055,6.2074,6.2222,6.2149,6.2167,6.2169,6.2215,6.2213,6.2238,6.2246,6.2245,6.2222,6.2257,6.227,6.2367,6.2434,6.2302,6.2308,6.2621,6.2628,6.2635,6.274,0,0,0,0,0,0,6.2049,6.2073,6.2124,6.2151,6.2171,6.2311,6.222,6.2218,6.2251,6.2242,6.227,6.227,6.2255,6.2357,6.2373,6.2441,6.2314,6.2615,6.2624,6.2632,6.2731,6.275,6.2767,0,0,0,0,0,6.2042,6.215,6.2127,6.2146,6.2235,6.2315,6.2326,6.2309,6.2257,6.2307,6.2311,6.2269,6.2424,6.2367,6.2385,6.2456,6.261,6.2621,6.2632,6.2723,6.2746,6.2766,0,0,0,0,0,0,6.2128,6.2153,6.2128,6.2248,6.2281,6.2302,6.2365,6.2334,6.238,6.2369,6.2343,6.235,6.2453,6.2464,6.24,6.2582,6.2508,6.2523,6.2571,6.2594,6.2611,6.2606,6.2319,0,0,0,0,0,6.2161,6.2227,6.2244,6.2348,6.2366,6.2363,6.2397,6.2381,6.2412,6.2425,6.2436,6.2466,6.2521,6.2558,6.2609,6.2732,6.2736,6.2789,6.2807,6.2821,6.2834,6.2898,6.2922,6.2672,6.2672,6.2672,0,0,6.223,6.2251,6.2294,6.2366,6.2389,6.2454,6.2375,6.2448,6.2495,6.2435,6.2527,6.2537,6.2568,6.2679,6.2728,6.2691,6.2904,6.2835,6.2847,6.2852,6.2912,6.2935,6.2956,6.268,6.2678,6.2677,0,0,6.2389,6.2413,6.2502,6.2527,6.2564,6.2561,6.2583,6.2609,6.2614,6.2707,6.2663,6.2717,6.2814,6.2838,6.2862,6.303,6.2992,6.3047,6.3141,6.3204,6.3223,6.324,6.3299,6.332,6.306,6.306,6.3061,0,6.2469,6.2569,6.255,6.2627,6.2659,6.261,6.2698,6.2722,6.2773,6.2795,6.2754,6.2873,6.2891,6.3005,6.3046,6.3068,6.309,6.3044,6.3222,6.3239,6.3255,6.3311,6.3333,6.3067,6.3066,6.3065,6.3065,0,6.2664,6.2734,6.2801,6.2854,6.2893,6.2976,6.2967,6.3009,6.2989,6.299,6.3084,6.3104,6.3158,6.3184,6.3164,6.3295,6.3271,6.3227,6.3152,6.3286,6.3337,6.3358,6.3076,6.3074,6.3072,6.307,0,0,6.2879,6.2922,6.2946,6.2969,6.3006,6.3058,6.3137,6.3192,6.3227,6.3264,6.3328,6.341,6.3369,6.3397,6.338,6.3435,6.3565,6.3384,6.3384,6.3416,6.3709,6.3742,6.3767,6.3541,6.3545,6.3548,6.3706,0,6.3038,6.3178,6.3163,6.3295,6.3358,6.3312,6.338,6.3408,6.3411,6.3463,6.3465,6.3523,6.3466,6.3482,6.3535,6.3538,6.3623,6.3527,6.3598,6.36,6.3591,6.3794,6.3829,6.3977,6.3726,6.3729,6.3732,0,6.3242,6.3288,6.3427,6.3454,6.348,6.3542,6.3591,6.3642,6.3672,6.367,6.3702,6.3675,6.3751,6.3676,6.3779,6.3714,6.3742,6.3748,6.3753,6.3758,6.3674,6.3803,6.4024,6.4046,6.3764,6.3761,6.3759,0,6.3384,6.348,6.3575,6.3597,6.3631,6.3675,6.3691,6.3717,6.3751,6.3792,6.3813,6.3863,6.3889,6.3927,6.3913,6.386,6.4019,6.3942,6.4017,6.4018,6.4052,6.405,6.428,6.4072,6.4072,6.4071,6.4071,0,6.3562,6.3648,6.364,6.3698,6.3793,6.3774,6.3867,6.3877,6.3901,6.3958,6.392,6.3974,6.3953,6.4005,6.3994,6.4081,6.4093,6.4092,6.4088,6.4095,6.4095,6.4112,6.4101,6.4077,6.4076,6.4075,6.4074,0,6.3736,6.3734,6.3834,6.3859,6.3867,6.3935,6.3955,6.4008,6.4008,6.4082,6.4097,6.4097,6.4156,6.4146,6.4211,6.4204,6.4312,6.4295,6.4302,6.4298,6.4373,6.4366,6.4621,6.4653,6.4426,6.4428,6.443,0,6.385,6.3915,6.3947,6.3985,6.4004,6.4064,6.4099,6.4082,6.4119,6.4159,6.4207,6.4264,6.4308,6.4405,6.4408,6.4458,6.4441,6.4527,6.4448,6.4453,6.4441,6.4438,6.4443,6.4543,6.4545,6.4547,6.4549,0,6.4051,6.4047,6.41,6.4153,6.4196,6.4236,6.4272,6.4304,6.429,6.4333,6.4395,6.443,6.4497,6.4553,6.4599,6.4611,6.4578,6.4574,6.4594,6.4602,6.4603,6.4602,6.4344,6.4568,6.4566,6.4565,6.4564,6.4563,6.4198,6.4254,6.4285,6.4345,6.4371,6.4405,6.4457,6.4464,6.4516,6.4571,6.4558,6.4627,6.4654,6.4712,6.4731,6.4783,6.4751,6.478,6.4787,6.4794,6.4803,6.4595,6.4791,6.4791,6.479,6.479,6.4789,0,6.4397,6.4415,6.447,6.4523,6.457,6.4536,6.4574,6.4614,6.4677,6.4706,6.4751,6.4821,6.4875,6.4883,6.4933,6.4973,6.4959,6.4987,6.4983,6.4987,6.4829,6.4807,6.4998,6.4998,6.4998,6.4998,6.4998,6.4998,6.4506,6.4599,6.4598,6.4702,6.4718,6.4788,6.4813,6.4843,6.4866,6.4947,6.4993,6.4999,6.5019,6.507,6.5117,6.5118,6.5138,6.5172,6.5166,6.5019,6.4998,6.4978,6.4957,6.5177,6.5177,6.532,6.5321,6.5322]}]]